Terug naar catalogus

STARLINK-4762

ActiefCommunicatieVLEO
NORAD 53866·PAYLOAD·🇺🇸 United States

Gelanceerd Sep 19, 2022 vanaf Cape Canaveral Space Force Station

Loading…

Volgende Passages (komende 24 uur)

TLE

VersSource: CelesTrak SupGP

Epoch: Sep 15, 2026, 02:35 UTC

1 53866C 22114BA  26258.10812500  .00015221  00000+0  44973-3 0  2586
2 53866  53.1562 118.8994 0001357  82.5729 194.5668 15.34381927    14

Volg STARLINK-4762 in realtime met AllMySat

Download on the App Store